ORBCOMM FM117

Last updated on Sun Jun 21 2026 00:03:16 GMT+0000 (Coordinated Universal Time)

1 41188U 15081K 26171.33461973 .00000118 00000+0 61235-4 0 9990 2 41188 46.9991 165.9489 0003577 236.9706 123.0836 14.58866426560586
UTC large
Height (km)
Speed (km/s)
/
Latitude / Longitude
Inclination (degrees)
Orbital Period (minutes)
Azimuth
Elevation
Range (km)
Doppler Factor

Next 0 passes for location: London (51.5072 / 0.1276)

No passes found over London.
ORBCOMM FM117